Wind_Speed
36 37 37 38 39 38 38 37 36 37 38 37 38 38 38 39 39 38 39 39 39 39 40 39 38 38 37 37 36 35 34 33 32 32 31 32 31 31 30 30 30 29 29
36 37 38 38 38 38 38 37 36 37 38 37 37 37 37 38 38 39 40 40 40 40 40 39 39 39 39 38 37 36 35 35 34 33 33 33 33 33 33 32 32 31 31
36 37 38 38 38 38 38 38 37 37 38 37 38 38 38 37 38 38 39 40 40 40 41 41 40 40 39 39 38 37 37 37 36 36 36 35 34 34 35 34 34 34 33
36 37 38 38 38 39 38 37 36 37 38 36 37 37 37 37 37 38 39 40 41 41 41 41 40 40 41 40 40 40 39 38 38 38 37 37 35 35 35 35 35 35 35
35 36 37 38 38 39 39 38 35 38 38 38 39 38 37 36 36 38 39 39 40 40 40 41 40 40 40 41 41 41 41 41 40 39 38 38 36 36 35 36 36 36 37
34 35 37 39 39 39 39 38 38 38 40 40 39 38 38 37 35 37 38 39 39 39 39 40 41 42 42 42 42 42 41 42 41 40 40 39 38 37 37 37 37 37 38
34 34 36 39 39 39 38 39 38 39 39 40 40 39 38 38 37 37 38 38 39 39 38 39 40 42 43 43 42 42 41 42 42 42 42 42 41 40 40 39 39 39 40
34 34 35 37 39 39 38 39 40 39 38 40 40 40 39 38 38 38 39 39 40 40 39 40 41 41 42 43 42 42 41 42 42 43 43 43 44 44 43 42 42 42 41
33 33 35 35 38 39 39 39 40 39 39 39 39 39 39 39 38 37 38 39 39 40 40 40 41 41 41 42 42 42 42 43 42 43 44 44 44 45 45 45 45 45 43
33 33 35 36 37 38 39 40 41 42 41 40 40 40 40 40 40 39 39 40 40 40 40 41 42 41 42 42 43 42 42 43 43 44 44 44 44 45 47 47 48 48 46
34 34 35 36 38 39 39 41 41 43 43 43 41 41 41 41 42 42 41 41 41 41 41 42 43 43 43 43 43 43 44 44 44 45 45 46 47 47 48 48 49 49 48
35 35 36 37 38 39 40 41 42 43 43 43 43 43 43 43 43 43 42 42 42 42 42 43 44 44 45 45 45 45 46 47 46 46 46 47 48 48 48 49 49 49 49
36 36 37 39 39 40 40 41 42 43 43 43 44 44 45 44 44 44 43 43 43 44 44 44 45 45 45 45 46 47 47 48 48 48 48 49 49 49 50 50 50 50 50
37 37 39 40 40 42 42 42 41 42 43 43 44 44 45 45 45 45 45 44 45 46 46 46 45 45 46 47 47 47 48 49 49 50 50 51 51 51 51 51 51 51 52
38 38 39 39 40 42 43 43 42 42 43 43 43 44 45 45 45 45 45 45 45 45 45 45 45 46 47 48 49 48 49 49 50 51 51 52 52 52 51 52 53 53 54
38 38 39 39 39 40 42 43 43 42 43 43 43 43 44 44 44 45 45 45 45 45 45 45 46 46 47 48 49 50 50 51 51 52 52 52 52 52 52 53 53 54 53
39 39 38 39 39 40 41 43 44 44 43 44 44 45 45 45 45 46 46 47 47 47 47 46 47 48 48 48 49 50 51 50 51 51 52 53 53 54 54 53 53 53 53
41 41 40 40 41 41 42 42 44 44 44 45 46 46 46 46 46 46 47 48 48 48 48 48 48 49 49 49 49 50 50 50 51 51 51 52 52 52 52 53 53 53 54
40 40 40 40 41 42 42 43 44 44 44 45 45 46 47 47 47 48 48 48 49 49 49 50 50 50 50 50 50 51 51 51 51 51 52 52 51 51 52 54 54 54 54
39 39 39 40 40 40 41 41 42 43 44 44 45 46 48 49 49 49 49 50 50 50 50 51 51 51 51 51 51 52 52 52 51 51 51 51 51 52 53 54 54 54 54
38 38 38 39 39 39 39 39 39 41 43 44 45 45 47 49 49 50 50 51 51 51 51 52 52 51 51 51 52 52 52 52 51 51 51 52 52 52 52 53 53 53 53
37 37 38 38 38 38 38 38 38 39 40 41 42 44 45 46 47 49 50 51 51 51 51 52 52 51 51 51 51 51 51 52 53 53 53 52 53 53 52 52 52 53 53
36 36 36 37 37 38 38 38 38 39 39 40 40 42 43 45 46 47 48 49 49 50 50 51 51 51 50 50 50 50 51 52 53 53 54 54 54 53 53 52 51 52 52
34 35 35 36 36 37 37 38 39 39 40 40 40 41 42 43 44 45 45 46 46 47 48 50 50 50 50 50 51 51 51 52 52 52 53 53 53 53 52 51 51 50 50
32 34 35 36 36 37 37 37 37 37 38 39 39 40 41 42 42 42 43 44 45 45 46 46 46 47 49 49 50 50 50 50 50 50 51 51 51 51 50 50 50 49 49
32 32 33 34 34 35 35 35 35 35 36 38 38 39 39 39 40 40 41 42 43 43 43 43 44 45 46 47 47 47 47 48 48 48 48 48 49 49 49 49 48 48 48
Wind_Direction
257 254 253 250 247 246 245 244 244 241 238 238 236 235 234 234 235 236 237 236 237 237 239 240 241 242 243 245 249 252 254 255 257 260 261 262 264 263 262 264 265 267 268
257 254 252 251 248 246 243 242 243 241 238 237 235 234 234 234 234 236 237 236 237 236 237 240 241 241 243 246 250 252 254 255 257 260 261 263 264 264 264 264 264 266 268
258 254 252 251 248 245 242 241 242 240 236 236 235 235 235 234 234 235 237 238 238 237 238 239 242 241 243 245 248 251 255 256 257 259 261 262 264 264 265 266 264 265 267
258 255 252 250 247 244 241 241 240 238 236 235 234 234 234 234 235 236 237 238 240 240 240 240 242 243 244 246 248 251 254 256 257 259 260 261 264 265 265 265 264 265 266
259 256 253 249 246 243 241 241 239 237 235 234 234 234 234 234 237 236 237 239 241 241 242 243 244 246 247 248 251 251 254 257 258 258 260 261 264 266 267 265 265 266 267
260 257 253 248 244 242 241 241 239 237 235 235 235 235 235 234 238 238 239 241 242 241 242 243 245 247 248 251 254 255 255 257 259 258 259 262 265 266 268 267 266 267 268
259 259 254 250 245 241 238 238 239 238 237 236 236 238 238 238 241 241 240 240 241 242 243 245 247 248 249 252 255 256 258 259 260 260 261 263 264 266 268 268 269 270 270
260 259 255 251 245 243 240 239 238 238 239 238 238 239 241 243 243 242 242 242 242 242 243 246 247 249 252 254 256 256 257 259 260 262 263 264 264 266 267 269 271 271 270
261 257 254 250 245 243 239 239 238 238 238 239 239 240 242 244 245 245 244 243 243 243 244 247 250 250 253 255 258 258 258 260 262 264 265 265 266 268 269 270 271 271 270
261 258 254 251 248 243 240 239 240 240 240 243 243 242 243 244 245 245 245 244 244 246 248 250 252 253 255 257 258 259 260 260 262 264 265 266 268 269 270 271 272 270 269
261 258 254 250 248 243 240 239 240 240 242 242 243 242 243 244 245 245 245 246 247 248 250 251 253 255 256 257 258 260 261 262 264 265 266 267 269 270 271 271 271 270 269
263 259 254 250 247 245 242 239 239 240 242 242 242 243 245 247 247 246 247 248 249 251 252 254 255 257 257 258 259 259 261 262 263 265 266 267 269 270 271 271 271 270 270
261 259 256 253 250 246 243 241 240 240 241 243 244 244 246 247 247 247 248 249 251 252 254 255 257 258 258 259 261 262 262 262 264 265 267 268 270 270 270 270 270 270 271
260 258 257 255 252 248 245 244 243 242 242 244 245 246 247 248 248 248 249 251 252 253 255 256 258 259 259 260 262 263 265 266 266 267 267 268 269 269 270 270 270 270 271
259 258 258 256 252 249 247 246 245 245 244 246 246 247 248 248 249 249 251 253 254 255 256 257 259 260 261 261 263 265 266 266 267 267 268 269 269 270 270 270 271 271 273
257 256 255 253 252 251 249 249 246 247 247 248 248 247 248 248 250 251 252 253 255 256 257 259 260 261 262 263 265 266 267 268 268 268 268 269 269 270 271 271 272 273 273
255 255 253 252 252 251 250 249 249 248 249 249 249 249 249 250 251 252 254 255 256 257 259 260 261 263 264 265 266 268 269 270 270 271 271 271 270 271 271 271 272 272 273
255 255 254 253 252 251 250 250 248 248 249 249 250 251 250 250 251 253 254 256 257 259 260 262 264 265 267 268 268 268 269 270 270 271 271 271 271 272 272 272 272 273 273
255 255 254 253 251 250 250 250 250 249 251 251 251 251 252 252 253 254 256 258 259 261 262 264 266 267 268 269 269 269 269 270 270 270 271 271 271 272 272 273 273 273 273
254 255 253 252 251 251 250 251 251 251 252 252 252 252 253 254 255 256 258 259 261 262 263 265 266 268 268 269 269 269 269 269 270 271 271 272 272 273 273 274 273 273 273
254 255 253 252 252 252 251 251 252 252 253 253 253 254 254 255 257 258 259 260 262 263 265 265 266 267 268 270 270 270 270 269 269 270 271 272 273 273 273 273 274 274 274
253 253 253 252 252 251 251 252 253 253 253 255 255 256 256 258 259 260 261 262 264 265 265 266 266 267 268 269 270 270 270 270 269 270 271 272 273 273 273 274 274 275 275
251 252 252 252 252 252 252 252 252 253 254 255 256 257 258 260 261 262 263 264 265 265 266 266 267 268 268 269 270 270 271 271 271 271 272 272 273 273 274 274 275 275 275
250 251 251 252 252 252 252 252 252 253 255 256 257 258 259 261 261 262 263 264 265 265 266 266 267 267 267 269 270 271 272 273 273 273 273 273 273 274 274 274 275 275 274
250 250 249 250 252 252 253 254 254 255 255 256 258 259 261 262 263 264 265 265 265 265 266 266 266 266 267 269 270 271 272 273 273 273 273 274 274 274 274 274 274 274 274
249 250 250 251 251 252 252 253 254 256 257 258 260 261 262 263 264 264 265 266 266 266 266 266 267 268 269 270 271 272 273 273 273 274 275 275 275 274 274 273 273 273 274
Height
5701 5703 5704 5707 5709 5711 5715 5717 5719 5722 5725 5729 5734 5739 5743 5747 5752 5756 5760 5763 5767 5771 5775 5778 5782 5785 5788 5791 5794 5796 5797 5799 5800 5802 5803 5804 5805 5806 5807 5808 5810 5811 5811
5692 5693 5695 5697 5699 5702 5706 5709 5711 5714 5717 5721 5727 5731 5735 5739 5744 5748 5751 5755 5759 5762 5766 5770 5774 5777 5780 5783 5786 5788 5790 5791 5793 5794 5795 5796 5798 5799 5800 5801 5803 5804 5804
5683 5685 5686 5688 5691 5694 5697 5700 5703 5706 5709 5714 5719 5723 5728 5732 5736 5740 5744 5747 5751 5754 5758 5762 5766 5769 5773 5775 5778 5780 5782 5784 5785 5787 5788 5789 5790 5791 5793 5794 5795 5796 5797
5674 5676 5678 5680 5682 5686 5689 5693 5695 5699 5703 5707 5712 5716 5720 5725 5729 5733 5737 5740 5743 5747 5750 5754 5758 5761 5764 5767 5769 5772 5773 5775 5777 5778 5779 5781 5782 5784 5785 5786 5787 5788 5789
5665 5666 5669 5672 5674 5677 5681 5684 5688 5692 5696 5700 5705 5709 5714 5718 5722 5726 5729 5732 5735 5739 5742 5746 5750 5753 5756 5758 5760 5763 5765 5767 5768 5770 5771 5773 5774 5775 5776 5778 5779 5779 5780
5655 5657 5660 5663 5666 5669 5673 5677 5681 5685 5689 5693 5698 5702 5707 5711 5714 5718 5722 5724 5728 5731 5734 5738 5741 5745 5747 5750 5752 5754 5756 5757 5759 5761 5762 5764 5765 5767 5768 5769 5770 5770 5771
5647 5649 5651 5654 5657 5662 5666 5670 5674 5678 5682 5686 5691 5695 5699 5703 5707 5710 5714 5716 5720 5723 5726 5730 5733 5736 5738 5741 5743 5745 5746 5748 5750 5751 5753 5754 5756 5757 5758 5759 5760 5761 5762
5639 5641 5643 5646 5650 5654 5658 5662 5666 5671 5674 5679 5683 5687 5692 5695 5699 5703 5706 5709 5712 5715 5718 5722 5724 5727 5729 5732 5734 5736 5737 5739 5740 5742 5743 5745 5746 5747 5748 5749 5750 5751 5752
5631 5633 5635 5638 5642 5646 5650 5653 5658 5662 5667 5671 5675 5679 5684 5687 5691 5694 5697 5701 5704 5706 5710 5713 5715 5718 5720 5723 5724 5726 5728 5729 5731 5732 5733 5734 5735 5736 5737 5737 5738 5740 5740
5623 5625 5627 5629 5633 5636 5641 5644 5648 5653 5658 5662 5666 5671 5675 5679 5682 5685 5689 5692 5695 5698 5701 5704 5706 5708 5711 5713 5715 5716 5718 5719 5720 5721 5722 5723 5724 5725 5725 5725 5726 5727 5728
5614 5616 5619 5621 5624 5627 5631 5635 5639 5644 5649 5653 5657 5662 5666 5670 5673 5676 5680 5683 5686 5689 5691 5694 5696 5699 5700 5702 5704 5705 5707 5708 5709 5710 5711 5712 5713 5713 5713 5713 5714 5714 5715
5605 5607 5609 5612 5615 5618 5622 5626 5630 5635 5639 5644 5648 5652 5656 5660 5663 5666 5670 5673 5676 5679 5681 5683 5686 5688 5690 5691 5693 5694 5696 5697 5698 5699 5699 5700 5700 5700 5700 5701 5701 5702 5703
5596 5598 5600 5602 5605 5608 5612 5616 5620 5624 5629 5633 5637 5642 5646 5649 5653 5656 5659 5662 5665 5668 5671 5673 5675 5676 5678 5680 5681 5682 5684 5685 5686 5686 5687 5687 5687 5688 5688 5688 5688 5689 5690
5587 5588 5590 5592 5595 5598 5602 5606 5609 5614 5618 5622 5626 5631 5634 5638 5641 5644 5648 5651 5654 5657 5659 5662 5663 5665 5666 5668 5669 5670 5671 5672 5673 5673 5674 5674 5674 5674 5674 5675 5675 5675 5676
5577 5579 5581 5583 5585 5588 5591 5595 5599 5603 5607 5611 5615 5619 5622 5626 5630 5633 5636 5639 5642 5645 5647 5649 5651 5653 5654 5655 5656 5657 5658 5658 5659 5659 5660 5660 5660 5660 5660 5660 5661 5661 5661
5566 5568 5570 5572 5575 5578 5581 5585 5588 5592 5595 5599 5603 5607 5610 5614 5618 5621 5624 5627 5630 5633 5635 5637 5638 5640 5640 5641 5641 5642 5643 5644 5644 5645 5646 5646 5646 5646 5646 5645 5646 5646 5646
5556 5558 5560 5562 5564 5568 5571 5574 5578 5581 5584 5588 5591 5595 5599 5602 5606 5609 5612 5615 5617 5619 5622 5623 5625 5626 5627 5627 5628 5628 5628 5629 5630 5630 5630 5631 5631 5631 5630 5630 5630 5630 5629
5545 5547 5549 5551 5554 5557 5560 5563 5567 5570 5573 5577 5580 5583 5586 5590 5593 5596 5599 5602 5604 5606 5608 5610 5611 5612 5613 5613 5613 5614 5614 5615 5615 5616 5616 5615 5616 5615 5615 5615 5615 5615 5615
5534 5536 5538 5540 5543 5546 5549 5552 5556 5559 5562 5565 5568 5571 5574 5577 5580 5583 5586 5588 5590 5593 5594 5596 5597 5598 5598 5598 5599 5599 5600 5601 5601 5601 5601 5600 5600 5600 5599 5599 5599 5600 5599
5523 5525 5527 5529 5532 5535 5538 5541 5544 5547 5550 5553 5556 5559 5562 5565 5567 5570 5573 5575 5576 5579 5580 5581 5582 5583 5584 5584 5584 5584 5584 5586 5586 5586 5586 5585 5585 5584 5583 5583 5583 5583 5583
5513 5515 5517 5519 5522 5524 5527 5530 5533 5536 5538 5541 5544 5546 5549 5552 5554 5557 5559 5561 5562 5564 5565 5567 5568 5568 5569 5569 5569 5568 5569 5570 5571 5571 5571 5571 5570 5569 5568 5567 5566 5566 5566
5502 5505 5507 5509 5512 5514 5517 5520 5523 5525 5527 5529 5532 5534 5537 5539 5540 5543 5545 5546 5548 5549 5550 5551 5553 5553 5554 5554 5554 5554 5554 5554 5555 5556 5556 5555 5555 5554 5553 5552 5551 5550 5549
5492 5494 5497 5499 5502 5504 5506 5509 5512 5514 5516 5518 5520 5522 5524 5526 5528 5529 5531 5532 5533 5534 5535 5536 5537 5539 5539 5539 5540 5540 5539 5539 5539 5540 5540 5540 5539 5538 5537 5536 5535 5535 5534
5482 5484 5487 5489 5491 5494 5496 5498 5501 5503 5505 5507 5509 5511 5513 5514 5515 5516 5517 5518 5519 5520 5521 5522 5523 5524 5525 5525 5525 5525 5525 5524 5524 5524 5524 5524 5523 5522 5522 5521 5521 5520 5519
5472 5474 5477 5479 5481 5483 5486 5488 5490 5492 5494 5496 5498 5499 5501 5502 5503 5504 5505 5505 5506 5506 5507 5508 5508 5509 5510 5511 5510 5510 5510 5510 5509 5509 5509 5509 5508 5507 5507 5507 5506 5505 5505
5462 5465 5467 5469 5471 5474 5476 5478 5480 5482 5484 5485 5487 5488 5489 5490 5491 5492 5493 5493 5494 5494 5494 5494 5495 5495 5496 5496 5496 5496 5495 5495 5494 5494 5494 5493 5493 5492 5492 5492 5492 5491 5491